Flag for Canada Weather past 2 weeks in Charlottetown, Pr.Edward I, Canada

Now
64 °F

Sunny.


Feels Like: 64 °F
Forecast: 62 / 81 °F
Wind: 9 mph from Southwest

Location: Charlottetown

Current Time: Jul 26, 2014 at 8:40:22 AM

Latest Report: Jul 26, 2014 at 8:00 AM


Visibility: 15 mi

Pressure: 29.87 "Hg

Humidity: 83%

Dew point: 59 °F

Location of CharlottetownLocation

Historic Weather in Charlottetown — Graph

°F

Charlottetown temperature yesterday

Maximum temperature yesterday: 72 °F (at 2:00 PM)
Minimum temperature yesterday: 59 °F (at 6:00 AM)
Average temperature yesterday: 66 °F

Past Weeks' High & Low Weather Summary

 TemperatureHumidityPressure
High84 °F (Jul 16, 3:00 PM)100% (Jul 15, 2:50 PM)30.28 "Hg (Jul 15, 2:50 PM)
Low54 °F (Jul 20, 5:00 AM)34% (Jul 12, 3:00 PM)29.69 "Hg (Jul 23, 6:00 PM)
Average69 °F77%29.98 "Hg
* Reported Jul 11 7:00 AM — Jul 26 7:00 AM, Charlottetown, Weather by CustomWeather, © 2014

Note: Actual official high and low records may vary slightly from our data, if they occured in-between our weather recording intervals... More about our weather records

Advertising

Charlottetown weather history for previous 24 hours

 ConditionsComfort  
Time TempWeatherWind HumidityBarometerVisibility
7:00 AM
Jul 26
63 °FSunny.9 mph83%29.85 "Hg15 mi
6:00 AM61 °FClear.10 mph88%29.84 "Hg15 mi
5:00 AM61 °FClear.7 mph88%29.83 "Hg15 mi
4:00 AM61 °FClear.8 mph88%29.83 "Hg15 mi
3:00 AM61 °FPassing clouds.8 mph88%29.82 "Hg15 mi
2:00 AM63 °FPassing clouds.9 mph83%29.83 "Hg15 mi
1:00 AM63 °FPassing clouds.7 mph83%29.83 "Hg15 mi
12:00 AM64 °FPassing clouds.8 mph78%29.84 "Hg15 mi
11:00 PM
Jul 25
64 °FPassing clouds.6 mph73%29.83 "Hg15 mi
10:00 PM63 °FPassing clouds.No wind83%29.82 "Hg15 mi
9:00 PM68 °FPassing clouds.5 mph69%29.81 "Hg15 mi
8:00 PM70 °FPassing clouds.5 mph69%29.81 "Hg15 mi
7:00 PM72 °FScattered clouds.2 mph69%29.80 "Hg15 mi
6:00 PM72 °FPartly sunny.3 mph65%29.80 "Hg15 mi
5:00 PM72 °FBroken clouds.6 mph65%29.79 "Hg15 mi
4:00 PM72 °FBroken clouds.No wind61%29.79 "Hg15 mi
3:00 PM72 °FBroken clouds.5 mph61%29.80 "Hg15 mi
2:00 PM72 °FMore clouds than sun.5 mph57%29.81 "Hg15 mi
1:00 PM70 °FMore clouds than sun.7 mph69%29.82 "Hg15 mi
12:00 PM70 °FBroken clouds.5 mph60%29.83 "Hg15 mi
11:00 AM70 °FBroken clouds.3 mph64%29.83 "Hg15 mi
10:00 AM68 °FPartly sunny.5 mph69%29.83 "Hg15 mi
9:00 AM66 °FPartly sunny.5 mph83%29.83 "Hg15 mi
8:00 AM64 °FPartly sunny.5 mph88%29.83 "Hg15 mi
Weather by CustomWeather, © 2014

See weather overviewHow to use our weather pages